Карточка аэропорта USCM

Внимание!
Информация на этой странице в стадии наполнения.
Если вы не увидели какой-то информации, или заметили неточность - пожалуйста сообщите нам!
Спасибо!
Команда RU-STAFF
Название аэропортаМагнитогорск
Название аэропорта (англ.)Magnitogorsk
Превышение436 ft. (132.9 m.)
Координаты53°23.586', 58°45.336'
Высота перехода7000ft
Эшелон переходаQNH>1013:FL80; 1013>QNH>977:FL90; 977>QNH:FL100;
Коды ответчика5501-5517
Зона ОрВДЕкатеринбург РПИ (USSV)
Данные METARUSCM 220751Z 14003MPS 1700 R36/1700U TSRA OVC011CB 19/19 Q1003 R36/290255 TEMPO VRB18MPS 0500 +TSRAGR SQ VV001 RMK QFE714
Проноз погоды (TAF)USCM 220452Z 2206/2215 13003G10MPS 9999 BKN016CB TEMPO 2206/2215 09008G18MPS 1100 TSRAGR VV003
NOTAMshow/hide NOTAM
AWOS   TABLE

Информация о ВПП

ВПП Длина ВПП (м.) Покрытие Курс ВПП Частота ILS
013250Цементобетон5108.7
193250Цементобетон185109.9

Диспетчерские позиции

Позывной Наименование органа УВД Частота
USCM_TWRМагнитогорск-Вышка120.8



Спутниковое изображение